This demonstration page uses our WeatherBlox Daily Observations layout. Learn more.

Left ArrowRight Arrow

41.86663, -103.66717

Hourly Observations for July 27, 2020

Temp ( °F °C ) Dew Point ( °F °C ) Humidity (%) Winds ( mph kmh ) Pressure ( in mb ) Visibility ( mi km ) Precip ( " mm )
12:53 am 00:53 Clear 66 18.9 62 16.7 87 87 E 7 11 30.12 1020 10 16.0934 0 0
1:36 am 01:36 Mostly Cloudy 67 19.4 63 17.2 87 87 E 7 11 30.05 1018 10 16.0934 0 0
1:53 am 01:53 Mostly Cloudy 67 19.4 63 17.2 87 87 ESE 6 9 30.11 1020 10 16.0934 0 0
2:13 am 02:13 Partly Cloudy 67 19.4 63 17.2 87 87 ESE 8 13 30.05 1018 10 16.0934 0 0
2:53 am 02:53 Clear 64 17.8 62 16.7 93 93 E 6 9 30.09 1019 10 16.0934 0 0
3:53 am 03:53 Mostly Clear 64 17.8 62 16.7 93 93 ESE 5 7 30.09 1019 10 16.0934 0 0
4:20 am 04:20 Mostly Cloudy 65 18.3 64 17.8 97 97 SE 6 9 30.05 1018 8 12.87472 0 0
4:30 am 04:30 Cloudy 64 18 63 17 94 94 SE 7 11 30.06 1018 8 12.87472 0 0
4:53 am 04:53 Cloudy 67 19.4 65 18.3 93 93 SSE 7 11 30.09 1019 9 14.48406 0 0
5:53 am 05:53 Cloudy 67 19.4 64 17.8 91 91 SE 3 6 30.09 1019 10 16.0934 0 0
6:53 am 06:53 Cloudy 68 20 63 17.2 84 84 S 3 6 30.1 1019 10 16.0934 0 0
7:53 am 07:53 Cloudy 69 20.6 63 17.2 81 81 SSE 5 7 30.11 1020 10 16.0934 0 0
8:33 am 08:33 Partly Cloudy 70 21.1 63 17.2 79 79 SSE 5 7 30.04 1017 10 16.0934 0 0
8:53 am 08:53 Mostly Cloudy 72 22.2 63 17.2 73 73 VRB 5 7 30.11 1020 10 16.0934 0 0
9:32 am 09:32 Mostly Sunny 74 23.3 63 17.2 69 69 ESE 5 7 29.99 1016 10 16.0934 0 0
9:53 am 09:53 Sunny 75 23.9 63 17.2 66 66 E 7 11 30.1 1019 10 16.0934 0 0
10:53 am 10:53 Sunny 78 25.6 63 17.2 60 60 VRB 6 9 30.09 1019 10 16.0934 0 0
11:53 am 11:53 Sunny 82 27.8 63 17.2 53 53 ESE 8 13 30.06 1018 10 16.0934 0 0
12:53 pm 12:53 Sunny 85 29.4 63 17.2 48 48 ESE 9 15 30.04 1017 10 16.0934 0 0
1:53 pm 13:53 Sunny 88 31.1 63 17.2 43 43 E 12 19 30 1016 10 16.0934 0 0
2:53 pm 14:53 Sunny 90 32.2 58 14.4 34 34 SSE 7 11 29.98 1015 10 16.0934 0 0
3:53 pm 15:53 Sunny 91 32.8 59 15 34 34 E 9 15 29.96 1015 10 16.0934 0 0
4:53 pm 16:53 Sunny 90 32.2 56 13.3 32 32 SE 8 13 29.93 1014 10 16.0934 0 0
5:53 pm 17:53 Sunny 89 31.7 59 15 36 36 E 14 22 29.92 1013 10 16.0934 0 0
6:53 pm 18:53 Sunny 86 30 61 16.1 43 43 E 10 17 29.92 1013 10 16.0934 0 0
7:53 pm 19:53 Sunny 81 27.2 62 16.7 53 53 ESE 6 9 29.93 1014 10 16.0934 0 0
8:53 pm 20:53 Clear 75 23.9 62 16.7 64 64 ESE 7 11 29.94 1014 10 16.0934 0 0
9:53 pm 21:53 Clear 77 25 59 15 54 54 SE 9 15 29.94 1014 10 16.0934 0 0
10:53 pm 22:53 Clear 73 22.8 61 16.1 66 66 ESE 7 11 29.95 1014 10 16.0934 0 0
11:53 pm 23:53 Clear 75 23.9 60 15.6 60 60 SSE 10 17 29.95 1014 10 16.0934 0 0

Powered by AerisWeather